N428BW KCMH-KCLE

Flight info

Callsign N428BW
Flight time 0h 58m
Altitude 7000
Route GEDDY ROLLN
Aircraft C208/L-VGD/C

Departure

Time 2026-05-09 01:08
Airport John Glenn Columbus International Airport (KCMH)

Arrival

Time 2026-05-09 02:06
Airport Cleveland Hopkins International Airport (KCLE)
Time Latitude Longitude Altitude Speed Heading
2026-05-09 00:49 39.99631 -82.89078 824 ft 0 kts
2026-05-09 01:03 39.99649 -82.89076 824 ft 13 kts 11°
2026-05-09 01:03 39.99644 -82.88954 824 ft 25 kts 118°
2026-05-09 01:03 39.99605 -82.88746 824 ft 23 kts 97°
2026-05-09 01:04 39.99594 -82.88547 824 ft 21 kts 94°
2026-05-09 01:04 39.99599 -82.88392 824 ft 14 kts 82°
2026-05-09 01:04 39.99610 -82.88255 824 ft 19 kts 84°
2026-05-09 01:04 39.99602 -82.88044 824 ft 28 kts 95°
2026-05-09 01:05 39.99702 -82.87912 824 ft 26 kts
2026-05-09 01:05 39.99878 -82.87892 824 ft 25 kts
2026-05-09 01:05 40.00012 -82.87949 824 ft 0 kts 12°
2026-05-09 01:06 40.00054 -82.87941 823 ft 9 kts
2026-05-09 01:06 40.00079 -82.87939 823 ft 0 kts
2026-05-09 01:07 40.00148 -82.87950 823 ft 24 kts 326°
2026-05-09 01:07 40.00182 -82.88306 825 ft 76 kts 274°
2026-05-09 01:07 40.00231 -82.89247 996 ft 118 kts 272°
2026-05-09 01:08 40.00277 -82.90323 1423 ft 121 kts 274°
2026-05-09 01:08 40.00625 -82.91301 1802 ft 126 kts 322°
2026-05-09 01:08 40.01433 -82.91447 2418 ft 114 kts 354°
2026-05-09 01:08 40.02228 -82.91463 2896 ft 115 kts 352°
2026-05-09 01:09 40.03068 -82.91454 3227 ft 130 kts 352°
2026-05-09 01:09 40.03961 -82.91439 3706 ft 123 kts 352°
2026-05-09 01:09 40.04812 -82.91401 4138 ft 129 kts 352°
2026-05-09 01:09 40.05741 -82.91361 4530 ft 131 kts 352°
2026-05-09 01:10 40.06633 -82.91300 5034 ft 125 kts 352°
2026-05-09 01:10 40.07564 -82.91231 5249 ft 145 kts 352°
2026-05-09 01:10 40.08598 -82.91109 5547 ft 154 kts
2026-05-09 01:10 40.09423 -82.90168 5797 ft 168 kts 61°
2026-05-09 01:11 40.09926 -82.88930 6423 ft 145 kts 63°
2026-05-09 01:11 40.10432 -82.87734 6685 ft 160 kts 63°
2026-05-09 01:11 40.10983 -82.86405 6959 ft 164 kts 62°
2026-05-09 01:11 40.11499 -82.85170 7295 ft 167 kts 62°
2026-05-09 01:12 40.12133 -82.83660 7074 ft 198 kts 62°
2026-05-09 01:12 40.12803 -82.82066 7016 ft 205 kts 62°
2026-05-09 01:12 40.13484 -82.80436 7055 ft 200 kts 62°
2026-05-09 01:12 40.14155 -82.78796 7019 ft 206 kts 62°
2026-05-09 01:13 40.14845 -82.77150 7010 ft 207 kts 62°
2026-05-09 01:13 40.15536 -82.75499 7009 ft 207 kts 62°
2026-05-09 01:13 40.16226 -82.73845 7008 ft 207 kts 62°
2026-05-09 01:13 40.16916 -82.72190 7016 ft 207 kts 62°
2026-05-09 01:14 40.17604 -82.70534 7007 ft 207 kts 62°
2026-05-09 01:14 40.18295 -82.68874 7002 ft 208 kts 62°
2026-05-09 01:14 40.18984 -82.67216 7006 ft 207 kts 62°
2026-05-09 01:14 40.19672 -82.65560 7007 ft 208 kts 62°
2026-05-09 01:15 40.20360 -82.63904 7013 ft 207 kts 62°
2026-05-09 01:15 40.21045 -82.62253 7013 ft 207 kts 62°
2026-05-09 01:15 40.21731 -82.60600 7019 ft 206 kts 62°
2026-05-09 01:15 40.22416 -82.58948 7014 ft 207 kts 62°
2026-05-09 01:16 40.23103 -82.57291 7018 ft 207 kts 62°
2026-05-09 01:16 40.23790 -82.55632 7012 ft 207 kts 61°
2026-05-09 01:16 40.24475 -82.53976 7003 ft 207 kts 61°
2026-05-09 01:17 40.25844 -82.50667 7001 ft 207 kts 62°
2026-05-09 01:17 40.26528 -82.49010 7016 ft 207 kts 61°
2026-05-09 01:17 40.27214 -82.47351 7014 ft 208 kts 62°
2026-05-09 01:17 40.27904 -82.45683 7006 ft 208 kts 61°
2026-05-09 01:18 40.28591 -82.44016 7018 ft 208 kts 61°
2026-05-09 01:18 40.29276 -82.42354 7013 ft 208 kts 62°
2026-05-09 01:18 40.29963 -82.40687 7003 ft 208 kts 62°
2026-05-09 01:18 40.30651 -82.39017 7012 ft 208 kts 61°
2026-05-09 01:19 40.31329 -82.37371 7018 ft 208 kts 61°
2026-05-09 01:19 40.32012 -82.35711 7015 ft 208 kts 62°
2026-05-09 01:19 40.32707 -82.34020 7009 ft 208 kts 61°
2026-05-09 01:19 40.33393 -82.32352 7002 ft 208 kts 61°
2026-05-09 01:20 40.34076 -82.30689 6994 ft 207 kts 62°
2026-05-09 01:20 40.34759 -82.29025 7011 ft 207 kts 62°
2026-05-09 01:20 40.35443 -82.27357 7003 ft 208 kts 61°
2026-05-09 01:20 40.36119 -82.25706 7013 ft 207 kts 62°
2026-05-09 01:21 40.36801 -82.24048 7017 ft 207 kts 62°
2026-05-09 01:21 40.37481 -82.22385 7033 ft 206 kts 61°
2026-05-09 01:21 40.38068 -82.20949 7741 ft 146 kts 60°
2026-05-09 01:21 40.38665 -82.19514 7094 ft 192 kts 61°
2026-05-09 01:22 40.39303 -82.17988 7003 ft 189 kts 60°
2026-05-09 01:22 40.39899 -82.16490 6899 ft 188 kts 63°
2026-05-09 01:22 40.40493 -82.15002 6960 ft 177 kts 62°
2026-05-09 01:22 40.41088 -82.13557 6983 ft 177 kts 61°
2026-05-09 01:23 40.41678 -82.12123 7068 ft 178 kts 61°
2026-05-09 01:23 40.42271 -82.10671 7061 ft 185 kts 61°
2026-05-09 01:23 40.42881 -82.09170 7026 ft 187 kts 61°
2026-05-09 01:23 40.43492 -82.07676 7023 ft 185 kts 62°
2026-05-09 01:24 40.44098 -82.06187 7022 ft 185 kts 61°
2026-05-09 01:24 40.44706 -82.04693 7023 ft 186 kts 61°
2026-05-09 01:24 40.45315 -82.03198 7019 ft 185 kts 61°
2026-05-09 01:24 40.45920 -82.01711 7020 ft 185 kts 61°
2026-05-09 01:25 40.46523 -82.00227 7018 ft 184 kts 61°
2026-05-09 01:25 40.47128 -81.98740 7018 ft 184 kts 61°
2026-05-09 01:25 40.47732 -81.97253 7019 ft 185 kts 61°
2026-05-09 01:25 40.48339 -81.95760 7023 ft 185 kts 61°
2026-05-09 01:26 40.48946 -81.94261 7022 ft 186 kts 61°
2026-05-09 01:26 40.49554 -81.92762 7030 ft 186 kts 61°
2026-05-09 01:26 40.50166 -81.91255 7031 ft 187 kts 61°
2026-05-09 01:26 40.50776 -81.89748 7040 ft 186 kts 61°
2026-05-09 01:27 40.51385 -81.88244 7040 ft 187 kts 61°
2026-05-09 01:27 40.51998 -81.86731 7047 ft 188 kts 62°
2026-05-09 01:27 40.52611 -81.85215 7037 ft 187 kts 62°
2026-05-09 01:27 40.53265 -81.83742 7035 ft 186 kts 49°
2026-05-09 01:28 40.54248 -81.82709 7035 ft 178 kts 20°
2026-05-09 01:28 40.55394 -81.82243 7035 ft 169 kts 358°
2026-05-09 01:28 40.56558 -81.81986 7036 ft 170 kts 360°
2026-05-09 01:28 40.57722 -81.81707 7041 ft 170 kts 360°
2026-05-09 01:29 40.58886 -81.81433 7041 ft 170 kts 359°
2026-05-09 01:29 40.60049 -81.81162 7039 ft 169 kts 359°
2026-05-09 01:29 40.61211 -81.80891 7043 ft 170 kts 359°
2026-05-09 01:29 40.62376 -81.80618 7044 ft 171 kts 359°
2026-05-09 01:30 40.63531 -81.80348 7046 ft 171 kts 359°
2026-05-09 01:30 40.64717 -81.80071 7048 ft 171 kts 359°
2026-05-09 01:30 40.65872 -81.79800 7048 ft 171 kts 359°
2026-05-09 01:30 40.67044 -81.79525 7050 ft 171 kts 359°
2026-05-09 01:31 40.68214 -81.79250 7047 ft 171 kts 359°
2026-05-09 01:31 40.69382 -81.78977 7051 ft 170 kts 359°
2026-05-09 01:31 40.70547 -81.78703 7049 ft 170 kts 359°
2026-05-09 01:31 40.71708 -81.78431 7049 ft 170 kts 359°
2026-05-09 01:32 40.72869 -81.78159 7052 ft 170 kts 359°
2026-05-09 01:32 40.74034 -81.77885 7052 ft 170 kts 359°
2026-05-09 01:32 40.75198 -81.77612 7052 ft 170 kts 359°
2026-05-09 01:32 40.76355 -81.77340 7054 ft 169 kts 359°
2026-05-09 01:33 40.77512 -81.77068 7054 ft 169 kts 359°
2026-05-09 01:33 40.78673 -81.76795 7055 ft 169 kts 359°
2026-05-09 01:33 40.79850 -81.76524 7007 ft 179 kts 359°
2026-05-09 01:33 40.81110 -81.76231 7036 ft 188 kts
2026-05-09 01:34 40.82418 -81.75920 7040 ft 193 kts
2026-05-09 01:34 40.83750 -81.75602 7043 ft 195 kts
2026-05-09 01:34 40.85089 -81.75278 7049 ft 196 kts
2026-05-09 01:34 40.86431 -81.74923 7050 ft 197 kts
2026-05-09 01:35 40.87773 -81.74567 7052 ft 197 kts
2026-05-09 01:35 40.89114 -81.74210 7056 ft 196 kts
2026-05-09 01:35 40.90452 -81.73855 7055 ft 196 kts
2026-05-09 01:35 40.91788 -81.73510 7052 ft 195 kts
2026-05-09 01:36 40.93123 -81.73164 7054 ft 195 kts
2026-05-09 01:36 40.94457 -81.72806 7055 ft 195 kts
2026-05-09 01:36 40.95789 -81.72451 7056 ft 196 kts
2026-05-09 01:36 40.97125 -81.72102 7054 ft 196 kts
2026-05-09 01:37 40.98463 -81.71749 7053 ft 196 kts
2026-05-09 01:37 40.99798 -81.71399 7053 ft 195 kts
2026-05-09 01:37 41.01132 -81.71049 7044 ft 196 kts
2026-05-09 01:37 41.02467 -81.70696 7045 ft 195 kts
2026-05-09 01:38 41.03796 -81.70345 7047 ft 195 kts
2026-05-09 01:38 41.05121 -81.69990 7047 ft 194 kts
2026-05-09 01:38 41.06435 -81.69639 7047 ft 194 kts
2026-05-09 01:38 41.07759 -81.69289 7046 ft 194 kts
2026-05-09 01:39 41.09081 -81.68946 7045 ft 192 kts 358°
2026-05-09 01:39 41.10369 -81.69004 7043 ft 182 kts 341°
2026-05-09 01:39 41.11627 -81.69225 7045 ft 183 kts 341°
2026-05-09 01:39 41.12886 -81.69440 7045 ft 182 kts 342°
2026-05-09 01:40 41.14127 -81.69655 7043 ft 183 kts 342°
2026-05-09 01:40 41.15385 -81.69874 7043 ft 182 kts 342°
2026-05-09 01:40 41.16643 -81.70100 7041 ft 183 kts 341°
2026-05-09 01:40 41.17901 -81.70325 7040 ft 183 kts 342°
2026-05-09 01:41 41.19161 -81.70552 6997 ft 184 kts 341°
2026-05-09 01:41 41.20443 -81.70783 6858 ft 187 kts 342°
2026-05-09 01:41 41.21737 -81.71029 6733 ft 189 kts 341°
2026-05-09 01:41 41.23042 -81.71279 6616 ft 190 kts 342°
2026-05-09 01:42 41.24351 -81.71537 6500 ft 191 kts 342°
2026-05-09 01:42 41.25667 -81.71793 6376 ft 191 kts 341°
2026-05-09 01:42 41.26979 -81.72048 6248 ft 189 kts 342°
2026-05-09 01:42 41.28277 -81.72293 6115 ft 187 kts 341°
2026-05-09 01:43 41.29130 -81.72455 6025 ft 187 kts 342°
2026-05-09 01:43 41.30416 -81.72697 5897 ft 186 kts 341°
2026-05-09 01:43 41.31693 -81.72930 5759 ft 185 kts 342°
2026-05-09 01:43 41.32974 -81.73156 5635 ft 186 kts 341°
2026-05-09 01:44 41.34260 -81.73381 5502 ft 187 kts 342°
2026-05-09 01:44 41.35544 -81.73611 5380 ft 186 kts 341°
2026-05-09 01:44 41.36828 -81.73832 5255 ft 186 kts 342°
2026-05-09 01:44 41.38114 -81.74053 5132 ft 187 kts 342°
2026-05-09 01:45 41.39402 -81.74277 5011 ft 186 kts 342°
2026-05-09 01:45 41.40670 -81.74497 5003 ft 182 kts 341°
2026-05-09 01:45 41.41922 -81.74709 5005 ft 181 kts 342°
2026-05-09 01:45 41.43168 -81.74924 5004 ft 180 kts 341°
2026-05-09 01:46 41.44412 -81.75142 5005 ft 180 kts 342°
2026-05-09 01:46 41.45653 -81.75359 5002 ft 179 kts 341°
2026-05-09 01:46 41.46890 -81.75576 5005 ft 179 kts 342°
2026-05-09 01:46 41.48125 -81.75795 5004 ft 178 kts 341°
2026-05-09 01:47 41.49357 -81.76011 5003 ft 179 kts 342°
2026-05-09 01:47 41.50593 -81.76235 5005 ft 179 kts 341°
2026-05-09 01:47 41.51826 -81.76461 5009 ft 179 kts 342°
2026-05-09 01:47 41.53060 -81.76690 5008 ft 179 kts 341°
2026-05-09 01:48 41.54290 -81.76907 5005 ft 178 kts 342°
2026-05-09 01:48 41.55513 -81.77133 5005 ft 177 kts 341°
2026-05-09 01:48 41.56731 -81.77357 5006 ft 177 kts 341°
2026-05-09 01:48 41.57980 -81.77307 4993 ft 192 kts 10°
2026-05-09 01:49 41.59058 -81.76172 4995 ft 206 kts 49°
2026-05-09 01:49 41.59881 -81.74603 5003 ft 207 kts 51°
2026-05-09 01:49 41.60707 -81.73028 5012 ft 207 kts 52°
2026-05-09 01:49 41.61522 -81.71469 5009 ft 207 kts 52°
2026-05-09 01:50 41.62348 -81.69882 5007 ft 208 kts 52°
2026-05-09 01:50 41.63176 -81.68294 5007 ft 208 kts 52°
2026-05-09 01:50 41.64013 -81.66697 4936 ft 213 kts 51°
2026-05-09 01:50 41.64856 -81.65086 4806 ft 209 kts 52°
2026-05-09 01:51 41.65696 -81.63479 4675 ft 207 kts 52°
2026-05-09 01:51 41.66524 -81.61907 4548 ft 206 kts 52°
2026-05-09 01:51 41.67338 -81.60369 4423 ft 205 kts 52°
2026-05-09 01:51 41.68159 -81.58819 4291 ft 204 kts 51°
2026-05-09 01:52 41.68983 -81.57275 4167 ft 205 kts 51°
2026-05-09 01:52 41.69811 -81.55731 4048 ft 204 kts 52°
2026-05-09 01:52 41.70628 -81.54214 4021 ft 198 kts 52°
2026-05-09 01:52 41.71437 -81.52727 4017 ft 197 kts 51°
2026-05-09 01:53 41.72237 -81.51247 4014 ft 195 kts 51°
2026-05-09 01:53 41.73028 -81.49787 4013 ft 193 kts 51°
2026-05-09 01:53 41.73686 -81.48237 4007 ft 193 kts 77°
2026-05-09 01:53 41.73555 -81.46525 4006 ft 182 kts 124°
2026-05-09 01:54 41.72710 -81.45478 4043 ft 151 kts 168°
2026-05-09 01:54 41.71775 -81.44996 4029 ft 140 kts 171°
2026-05-09 01:54 41.70884 -81.44760 4024 ft 122 kts 199°
2026-05-09 01:54 41.70065 -81.44986 4023 ft 120 kts 201°
2026-05-09 01:55 41.69248 -81.45201 4023 ft 117 kts 206°
2026-05-09 01:55 41.68733 -81.45903 4020 ft 107 kts 246°
2026-05-09 01:55 41.68277 -81.46683 4019 ft 108 kts 230°
2026-05-09 01:55 41.67750 -81.47409 4015 ft 111 kts 230°
2026-05-09 01:56 41.67140 -81.48217 4008 ft 131 kts 229°
2026-05-09 01:56 41.66461 -81.49083 4013 ft 139 kts 228°
2026-05-09 01:56 41.65746 -81.49978 4017 ft 142 kts 227°
2026-05-09 01:56 41.65022 -81.50882 4025 ft 143 kts 227°
2026-05-09 01:57 41.64291 -81.51791 4025 ft 144 kts 227°
2026-05-09 01:57 41.63554 -81.52708 4027 ft 145 kts 227°
2026-05-09 01:57 41.62811 -81.53634 4026 ft 146 kts 227°
2026-05-09 01:57 41.62063 -81.54562 4025 ft 147 kts 227°
2026-05-09 01:58 41.61316 -81.55494 4026 ft 147 kts 227°
2026-05-09 01:58 41.60565 -81.56425 4029 ft 147 kts 228°
2026-05-09 01:58 41.59817 -81.57356 4023 ft 147 kts 227°
2026-05-09 01:58 41.59069 -81.58285 4024 ft 147 kts 227°
2026-05-09 01:59 41.58322 -81.59212 4026 ft 147 kts 228°
2026-05-09 01:59 41.57573 -81.60142 4013 ft 147 kts 227°
2026-05-09 01:59 41.56770 -81.60998 4011 ft 147 kts 226°
2026-05-09 01:59 41.56014 -81.61917 4012 ft 147 kts 227°
2026-05-09 02:00 41.55296 -81.62885 4012 ft 145 kts 237°
2026-05-09 02:00 41.54704 -81.63954 4011 ft 146 kts 234°
2026-05-09 02:00 41.54052 -81.65014 4018 ft 146 kts 234°
2026-05-09 02:00 41.53409 -81.66061 4017 ft 146 kts 234°
2026-05-09 02:01 41.52761 -81.67087 4014 ft 142 kts 234°
2026-05-09 02:01 41.52131 -81.68085 4002 ft 140 kts 234°
2026-05-09 02:01 41.51502 -81.69087 3854 ft 146 kts 233°
2026-05-09 02:01 41.50840 -81.70137 3650 ft 150 kts 233°
2026-05-09 02:02 41.50169 -81.71203 3445 ft 147 kts 233°
2026-05-09 02:02 41.49548 -81.72184 3250 ft 129 kts 234°
2026-05-09 02:02 41.49000 -81.73064 3090 ft 119 kts 233°
2026-05-09 02:02 41.48483 -81.73881 2936 ft 113 kts 233°
2026-05-09 02:03 41.47985 -81.74668 2796 ft 110 kts 233°
2026-05-09 02:03 41.47496 -81.75444 2648 ft 109 kts 234°
2026-05-09 02:03 41.46993 -81.76246 2505 ft 119 kts 232°
2026-05-09 02:03 41.46445 -81.77116 2351 ft 126 kts 231°
2026-05-09 02:04 41.45881 -81.78014 2155 ft 126 kts 231°
2026-05-09 02:04 41.45310 -81.78919 1981 ft 129 kts 231°
2026-05-09 02:04 41.44722 -81.79848 1803 ft 133 kts 231°
2026-05-09 02:04 41.44121 -81.80802 1613 ft 137 kts 230°
2026-05-09 02:05 41.43502 -81.81788 1413 ft 141 kts 229°
2026-05-09 02:05 41.42869 -81.82782 1206 ft 133 kts 229°
2026-05-09 02:05 41.42354 -81.83617 1051 ft 102 kts 230°
2026-05-09 02:05 41.41973 -81.84222 913 ft 76 kts 229°
2026-05-09 02:06 41.41618 -81.84784 810 ft 79 kts 230°
2026-05-09 02:06 41.41325 -81.85244 761 ft 52 kts 229°
2026-05-09 02:06 41.41115 -81.85496 759 ft 29 kts 166°
2026-05-09 02:07 41.41040 -81.85431 760 ft 0 kts 182°
2026-05-09 02:07 41.41020 -81.85396 762 ft 8 kts 54°
2026-05-09 02:07 41.41163 -81.85229 762 ft 29 kts 52°
2026-05-09 02:08 41.41280 -81.85057 762 ft 18 kts 55°
2026-05-09 02:08 41.41313 -81.84939 762 ft 10 kts 119°
2026-05-09 02:08 41.41256 -81.84887 762 ft 9 kts 136°
2026-05-09 02:08 41.41240 -81.84869 762 ft 0 kts 139°
2026-05-09 02:09 41.41143 -81.84759 763 ft 30 kts 139°
2026-05-09 02:09 41.41083 -81.84703 762 ft 0 kts 161°
2026-05-09 02:10 41.41073 -81.84707 762 ft 12 kts 213°
2026-05-09 02:10 41.40991 -81.84835 762 ft 19 kts 230°
2026-05-09 02:10 41.40908 -81.84967 762 ft 18 kts 230°
2026-05-09 02:11 41.40826 -81.85096 762 ft 18 kts 231°
2026-05-09 02:11 41.40761 -81.85194 761 ft 10 kts 230°
2026-05-09 02:11 41.40746 -81.85219 761 ft 0 kts 232°
2026-05-09 02:11 41.40744 -81.85222 761 ft 6 kts 232°
2026-05-09 02:12 41.40652 -81.85371 762 ft 23 kts 229°
2026-05-09 02:12 41.40546 -81.85511 762 ft 17 kts 191°
2026-05-09 02:12 41.40441 -81.85476 762 ft 16 kts 161°
2026-05-09 02:12 41.40336 -81.85429 760 ft 16 kts 161°
2026-05-09 02:13 41.40248 -81.85361 762 ft 12 kts 151°
2026-05-09 02:13 41.40193 -81.85404 762 ft 11 kts 262°
2026-05-09 02:13 41.40194 -81.85435 762 ft 0 kts 267°